2022-090B (53347 NORAD) Tracking and Keplerian Element Data

This shows tracking and keplerian element data for the satellite.

Feedback or suggestion? Click here.




ElementValue
Catalog53347
Name2022-090B
Epoch Orbit823
Epoch Day270.2332042
Epoch Year2022
RAAN342.8273
Inclination97.4678
Eccentricity0.0014387
Argument of Perigee89.7272
Mean Anonmoly355.82
Mean Motion15.24357448
Decay Rate0.00010384
L11 53347U 22090B 22270.23320420 .00010384 00000+0 42570-3 0 9990
L22 53347 97.4678 342.8273 0014387 89.7272 355.8200 15.24357448 8231

Live tracking and technical data element details for 2022-090B (NORAD 53347). 2022-090B can be tracked NOW for your location showing map with azimuth and elevation plus other details from your city location.

Track the satellite on the map from your city or location and see movement details for azimuth, elevation, latitude, longitude, range, height, and movement on the map or in text.







IsCatalogInMostPopularTable: catalog: 53347, numindb: 3
Update: records affected: 1



GetName: 53347 2022-090B

Hit Count: updated at: Fri, 30 Sep 2022 02:14:22 GMT